Tracking 28895 objects as of 28-May-2024
HD Live streaming from Space Station
objects crossing your sky now

STARLINK-3392

Track STARLINK-3392 now!
10-day predictions
STARLINK-3392 is classified as:


NORAD ID: 51123
Int'l Code: 2022-005V
Perigee: 546.3 km
Apogee: 547.5 km
Inclination: 53.2 °
Period: 95.4 minutes
Semi major axis: 6917 km
RCS: Unknown
Launch date: January 19, 2022
Source: United States (US)
Launch site: AIR FORCE EASTERN TEST RANGE (AFETR)
Your satellite tracking list
Your tracking list is empty




NASA's NSSDC Master Catalog

Two Line Element Set (TLE):
1 51123U 22005V   24148.77626273  .00002458  00000-0  17246-3 0  9992
2 51123  53.2171 331.1873 0000888 100.2727 259.8365 15.08840496130616
Source of the keplerian elements: AFSPC